FW3296 Weather Reports


time (UTC)temp
C
wind
direction
speed
KPH
gust
KPH
rain 1hr
cm
rain 24hr
cm
rain mn
cm
humidity
%
barometer
mb
20260510190535 11 50 9.7 20.9 0.00 0.00 0.00 71 1014.5
20260510185515 12 45 9.7 24.1 0.00 0.00 0.00 70 1014.5
20260510184515 12 42 11.3 20.9 0.00 0.00 0.00 70 1014.5
20260510183515 12 47 9.7 20.9 0.00 0.00 0.00 69 1014.6
20260510182515 12 44 12.9 24.1 0.00 0.00 0.00 70 1014.6
20260510181515 12 48 11.3 29.0 0.00 0.00 0.00 71 1014.6
20260510180515 12 39 14.5 29.0 0.00 0.00 0.00 72 1014.6
20260510175515 12 34 19.3 33.8 0.00 0.00 0.00 71 1014.7
20260510174515 12 37 16.1 30.6 0.00 0.00 0.00 71 1014.7
20260510173515 12 35 16.1 33.8 0.00 0.00 0.00 71 1014.8
20260510172535 13 39 19.3 37.0 0.00 0.00 0.00 70 1014.8
20260510171515 13 40 16.1 27.4 0.00 0.00 0.00 71 1014.9
20260510170515 13 39 14.5 33.8 0.00 0.00 0.00 71 1014.9
20260510165515 13 37 16.1 29.0 0.00 0.05 0.00 70 1014.9
20260510164535 14 40 14.5 29.0 0.00 0.05 0.00 69 1014.8
20260510163515 14 45 12.9 27.4 0.00 0.05 0.00 69 1014.8
20260510162517 14 39 16.1 30.6 0.00 0.05 0.00 69 1014.8
20260510161517 14 35 16.1 27.4 0.00 0.05 0.00 69 1014.8
20260510160517 15 42 14.5 30.6 0.00 0.05 0.00 67 1014.8
20260510155535 15 39 14.5 25.7 0.00 0.05 0.00 67 1014.9
20260510154557 15 33 12.9 29.0 0.00 0.05 0.00 67 1015.0
20260510153517 16 41 12.9 29.0 0.00 0.05 0.00 68 1014.9
20260510152517 15 41 11.3 30.6 0.00 0.05 0.00 68 1015.0
20260510151517 15 37 12.9 32.2 0.00 0.05 0.00 67 1015.0
20260510150537 16 38 16.1 25.7 0.00 0.05 0.00 65 1015.2
20260510145516 16 40 12.9 33.8 0.00 0.05 0.00 66 1015.1
20260510144517 16 39 12.9 30.6 0.00 0.05 0.00 66 1015.2
20260510143517 16 39 11.3 25.7 0.00 0.05 0.00 66 1015.3
20260510142517 16 52 12.9 29.0 0.00 0.05 0.00 66 1015.4
20260510141557 16 66 12.9 32.2 0.00 0.05 0.00 67 1015.4
20260510140537 16 42 14.5 32.2 0.00 0.05 0.00 66 1015.4
20260510135537 16 57 14.5 30.6 0.00 0.05 0.00 66 1015.5
20260510134537 16 77 9.7 27.4 0.00 0.05 0.00 68 1015.6
20260510133517 17 42 14.5 29.0 0.00 0.05 0.00 63 1015.5
20260510132516 17 53 11.3 25.7 0.00 0.05 0.00 62 1015.5
20260510131617 17 48 14.5 29.0 0.00 0.05 0.00 61 1015.5
20260510130516 17 78 12.9 24.1 0.00 0.05 0.00 58 1015.5
20260510125516 17 70 9.7 30.6 0.00 0.05 0.00 58 1015.5
20260510124536 17 58 11.3 30.6 0.00 0.05 0.00 59 1015.6
20260510123516 17 78 9.7 25.7 0.00 0.05 0.00 59 1015.8
20260510122517 17 90 12.9 27.4 0.00 0.05 0.00 59 1015.9
20260510121517 17 87 11.3 33.8 0.00 0.05 0.00 60 1015.9
20260510120557 16 49 12.9 29.0 0.00 0.05 0.00 59 1015.8
20260510115516 17 77 9.7 22.5 0.00 0.05 0.00 61 1015.9
20260510114516 17 54 9.7 22.5 0.00 0.05 0.00 60 1015.9
20260510113516 17 90 8.0 24.1 0.00 0.05 0.00 60 1016.0
20260510112516 16 96 11.3 27.4 0.00 0.05 0.00 61 1015.9
20260510111516 16 70 11.3 29.0 0.00 0.05 0.00 61 1016.1
20260510110516 16 62 9.7 29.0 0.00 0.05 0.00 62 1016.1
20260510105516 16 61 8.0 24.1 0.00 0.05 0.00 64 1016.1
20260510104516 16 83 8.0 24.1 0.00 0.05 0.00 64 1016.3
20260510103537 15 86 9.7 22.5 0.00 0.05 0.00 67 1016.3
20260510102516 15 93 11.3 27.4 0.00 0.05 0.00 67 1016.5
20260510101516 14 61 14.5 29.0 0.00 0.05 0.00 68 1016.5
20260510100517 13 68 11.3 25.7 0.00 0.05 0.00 69 1016.5
20260510095516 12 61 9.7 27.4 0.00 0.05 0.00 71 1016.5
20260510094516 12 85 8.0 22.5 0.00 0.05 0.00 74 1016.6
20260510093536 12 61 9.7 22.5 0.00 0.05 0.00 73 1016.7
20260510092516 12 61 9.7 27.4 0.00 0.05 0.00 73 1016.6
20260510091556 12 50 8.0 22.5 0.00 0.05 0.00 76 1016.7
20260510090516 11 76 8.0 24.1 0.00 0.05 0.00 77 1016.7
20260510085536 11 65 9.7 29.0 0.00 0.05 0.00 77 1016.7
20260510084521 11 62 9.7 24.1 0.00 0.05 0.00 78 1016.8
20260510083536 11 51 11.3 24.1 0.00 0.05 0.00 78 1016.8
20260510082515 10 50 8.0 20.9 0.00 0.05 0.00 79 1016.9
20260510081516 10 46 11.3 24.1 0.00 0.05 0.00 80 1016.9
20260510080516 10 43 12.9 25.7 0.00 0.05 0.00 80 1016.8
20260510075516 10 42 14.5 25.7 0.00 0.05 0.00 80 1016.8
20260510074516 10 50 11.3 25.7 0.00 0.05 0.00 79 1016.8
20260510073516 10 62 12.9 29.0 0.00 0.05 0.00 79 1016.8
20260510072535 10 44 12.9 29.0 0.00 0.05 0.00 78 1016.6
20260510071516 10 81 8.0 24.1 0.00 0.05 0.00 80 1016.7
20260510070516 10 69 9.7 22.5 0.00 0.05 0.00 80 1016.6
20260510065516 10 76 9.7 25.7 0.00 0.05 0.00 81 1016.4
20260510064516 9 44 12.9 29.0 0.00 0.05 0.00 81 1016.3
20260510063516 9 45 11.3 25.7 0.00 0.05 0.00 81 1016.2
20260510062515 9 39 11.3 22.5 0.00 0.05 0.00 82 1016.0
20260510061536 9 40 14.5 27.4 0.00 0.05 0.00 82 1015.9
20260510060516 8 40 12.9 24.1 0.00 0.05 0.00 82 1015.8
20260510055516 8 45 11.3 25.7 0.00 0.05 0.00 82 1015.7
20260510054516 8 38 11.3 20.9 0.00 0.05 0.00 81 1015.8
20260510053516 8 45 11.3 25.7 0.00 0.05 0.00 80 1015.6
20260510052515 8 44 11.3 20.9 0.00 0.05 0.00 80 1015.8
20260510051516 8 42 11.3 20.9 0.00 0.05 0.00 80 1015.8
20260510050516 9 42 14.5 24.1 0.00 0.05 0.00 79 1015.7
20260510045515 9 40 11.3 20.9 0.00 0.05 0.00 79 1015.7
20260510044516 9 40 11.3 20.9 0.00 0.05 0.00 79 1015.7
20260510043515 9 39 8.0 22.5 0.00 0.05 0.00 78 1015.7
20260510042516 10 45 9.7 20.9 0.00 0.05 0.00 78 1015.8
20260510041516 10 58 8.0 20.9 0.00 0.05 0.00 77 1015.8
20260510040515 10 57 6.4 14.5 0.00 0.05 0.00 78 1015.9
20260510035515 10 64 6.4 19.3 0.00 0.05 0.00 79 1016.0
20260510034515 10 44 8.0 17.7 0.00 0.05 0.00 80 1016.0
20260510033555 11 66 6.4 19.3 0.00 0.05 0.00 80 1016.1
20260510032515 11 45 11.3 25.7 0.00 0.05 0.00 80 1016.0
20260510031515 11 80 8.0 24.1 0.00 0.05 0.00 80 1016.0
20260510030536 11 82 8.0 19.3 0.00 0.05 0.00 81 1016.1
20260510025515 11 71 6.4 19.3 0.00 0.05 0.00 80 1016.2
20260510024516 11 69 6.4 17.7 0.00 0.05 0.00 80 1016.2
20260510023516 11 78 6.4 24.1 0.00 0.05 0.00 80 1016.2
20260510022515 11 64 4.8 14.5 0.00 0.05 0.00 81 1016.3
20260510021515 11 67 4.8 12.9 0.00 0.05 0.00 82 1016.4
20260510020515 11 59 4.8 14.5 0.00 0.05 0.00 82 1016.4
20260510015515 11 69 3.2 9.7 0.00 0.05 0.00 84 1016.4
20260510014515 11 67 4.8 11.3 0.00 0.05 0.00 84 1016.5
20260510013515 11 49 4.8 16.1 0.00 0.05 0.00 85 1016.5
20260510012515 11 54 4.8 14.5 0.00 0.05 0.00 85 1016.5
20260510011515 11 46 6.4 17.7 0.00 0.05 0.00 86 1016.6
20260510010515 11 46 6.4 16.1 0.00 0.05 0.00 87 1016.6
20260510005555 11 49 6.4 19.3 0.00 0.05 0.00 89 1016.6
20260510004515 11 47 8.0 16.1 0.00 0.05 0.00 90 1016.7
20260510003515 11 44 8.0 16.1 0.00 0.05 0.00 89 1016.6
20260510002514 11 48 9.7 16.1 0.00 0.05 0.00 89 1016.6
20260510001535 11 38 8.0 16.1 0.00 0.05 0.00 89 1016.9
20260510000515 11 37 9.7 16.1 0.00 0.05 0.00 90 1016.9
20260509235537 11 33 9.7 16.1 0.00 0.05 0.00 90 1017.0
20260509234517 11 33 9.7 17.7 0.00 0.05 0.00 90 1017.0
20260509233517 11 33 9.7 16.1 0.00 0.05 0.00 90 1017.1
20260509232557 11 32 8.0 16.1 0.00 0.05 0.00 90 1017.0
20260509231517 11 37 8.0 14.5 0.00 0.05 0.00 90 1017.0
20260509230517 11 33 9.7 16.1 0.00 0.05 0.00 90 1017.2
20260509225536 11 37 8.0 14.5 0.00 0.05 0.05 90 1017.2
20260509224516 11 33 6.4 14.5 0.00 0.05 0.05 90 1017.2
20260509223515 11 53 6.4 9.7 0.00 0.05 0.05 90 1017.2
20260509222535 11 53 4.8 11.3 0.00 0.05 0.05 90 1017.2
20260509221515 11 50 4.8 11.3 0.00 0.05 0.05 89 1017.2
20260509220556 11 46 8.0 16.1 0.00 0.05 0.05 89 1017.3
20260509215515 12 39 8.0 16.1 0.00 0.05 0.05 88 1017.3
20260509214556 12 55 4.8 11.3 0.00 0.05 0.05 88 1017.2
20260509213515 12 57 4.8 11.3 0.00 0.05 0.05 87 1017.2
20260509212515 12 53 6.4 14.5 0.00 0.05 0.05 86 1017.2
20260509211515 12 53 4.8 11.3 0.00 0.05 0.05 85 1017.2
20260509210516 12 38 8.0 17.7 0.00 0.05 0.05 84 1017.1
20260509205515 13 53 4.8 14.5 0.00 0.05 0.05 83 1017.1
20260509204535 13 37 6.4 14.5 0.00 0.05 0.05 82 1017.0
20260509203535 13 33 6.4 14.5 0.00 0.05 0.05 81 1017.0
20260509202515 13 41 6.4 16.1 0.00 0.05 0.05 80 1016.8
20260509201515 14 35 8.0 17.7 0.00 0.05 0.05 79 1016.8
20260509200536 14 42 9.7 17.7 0.00 0.05 0.05 79 1016.8
20260509195515 14 46 8.0 17.7 0.00 0.05 0.05 78 1016.7
20260509194515 14 37 9.7 20.9 0.00 0.05 0.05 79 1016.6
20260509193515 15 36 9.7 19.3 0.00 0.05 0.05 80 1016.6
20260509192535 15 32 9.7 17.7 0.00 0.05 0.05 80 1016.6
20260509191515 15 33 8.0 17.7 0.00 0.05 0.05 81 1016.7